CW8468 Weather Reports


Display with metric or nautical units.
time (UTC)temp
F
wind
direction
speed
MPH
gust
MPH
rain 1hr
in
rain 24hr
in
rain mn
in
humidity
%
barometer
mb
20260906231514 86 225 1.0 4.0 0.00 0.00 0.00 67 1010.5
20260906230959 86 169 2.0 4.0 0.00 0.00 0.00 68 1010.4
20260906230458 87 166 2.0 4.0 0.00 0.00 0.00 66 1010.4
20260906230023 88 130 1.0 4.0 0.00 0.00 0.00 66 1010.4
20260906225459 88 129 1.0 4.0 0.00 0.00 0.00 66 1010.5
20260906224959 87 57 1.0 4.0 0.00 0.00 0.00 68 1010.4
20260906224514 87 170 1.0 4.0 0.00 0.00 0.00 67 1010.4
20260906224003 86 158 1.0 3.0 0.00 0.00 0.00 70 1010.6
20260906223459 86 77 1.0 3.0 0.00 0.00 0.00 70 1010.8
20260906223023 86 120 1.0 3.0 0.00 0.00 0.00 72 1010.9
20260906222459 86 85 1.0 3.0 0.00 0.00 0.00 73 1010.9
20260906222000 85 83 1.0 3.0 0.00 0.00 0.00 73 1010.9
20260906221514 85 99 1.0 3.0 0.00 0.00 0.00 73 1010.9
20260906220959 85 81 1.0 3.0 0.00 0.00 0.00 73 1010.8
20260906220459 85 64 0.0 3.0 0.00 0.00 0.00 73 1011.0
20260906220023 85 133 0.0 2.0 0.00 0.00 0.00 73 1011.2
20260906215459 85 126 1.0 2.0 0.00 0.00 0.00 73 1011.3
20260906215000 85 75 1.0 2.0 0.00 0.00 0.00 72 1011.4
20260906214514 84 157 1.0 3.0 0.00 0.00 0.00 73 1011.4
20260906213458 84 60 1.0 2.0 0.00 0.00 0.00 73 1011.5
20260906213022 84 98 1.0 3.0 0.00 0.00 0.00 73 1011.4
20260906212459 84 153 0.0 3.0 0.00 0.00 0.00 73 1011.5
20260906212000 84 190 0.0 2.0 0.00 0.00 0.00 73 1011.7
20260906211514 84 146 1.0 3.0 0.00 0.00 0.00 73 1011.8
20260906211005 84 160 1.0 3.0 0.00 0.00 0.00 71 1011.8
20260906210459 84 177 1.0 4.0 0.00 0.00 0.00 73 1011.8
20260906210022 84 229 1.0 4.0 0.00 0.00 0.00 72 1011.9
20260906205459 84 237 2.0 5.0 0.00 0.00 0.00 73 1012.1
20260906204513 84 174 1.0 5.0 0.00 0.00 0.00 72 1012.2
20260906203959 84 353 1.0 2.0 0.00 0.00 0.00 71 1012.3
20260906203458 84 146 1.0 4.0 0.00 0.00 0.00 71 1012.1
20260906203020 84 171 1.0 4.0 0.00 0.00 0.00 70 1012.1
20260906202458 84 168 1.0 4.0 0.00 0.00 0.00 71 1012.0
20260906201959 84 206 1.0 3.0 0.00 0.00 0.00 73 1012.0
20260906201514 83 61 2.0 6.0 0.00 0.00 0.00 73 1012.1
20260906200959 84 112 2.0 6.0 0.00 0.00 0.00 73 1012.1
20260906200459 83 175 2.0 5.0 0.00 0.00 0.00 75 1012.1
20260906200025 83 213 2.0 5.0 0.00 0.00 0.00 76 1012.1
20260906195459 82 258 3.0 10.0 0.00 0.00 0.00 77 1012.0
20260906194959 82 230 3.0 10.0 0.00 0.00 0.00 77 1012.0
20260906194514 82 353 3.0 9.0 0.00 0.00 0.00 76 1012.1
20260906194000 82 227 3.0 11.0 0.00 0.00 0.00 76 1012.2
20260906193022 83 177 5.0 9.0 0.00 0.00 0.00 74 1012.5
20260906192458 83 353 5.0 14.0 0.00 0.00 0.00 74 1012.6
20260906192000 83 202 4.0 15.0 0.00 0.00 0.00 75 1012.9
20260906191513 83 171 3.0 12.0 0.00 0.00 0.00 74 1013.0
20260906191000 85 174 2.0 12.0 0.00 0.00 0.00 73 1013.2
20260906190459 85 118 1.0 3.0 0.00 0.00 0.00 75 1013.1
20260906185500 85 69 1.0 3.0 0.00 0.00 0.00 75 1013.2
20260906185000 86 5 2.0 4.0 0.00 0.00 0.00 74 1013.2
20260906184005 86 58 2.0 4.0 0.00 0.00 0.00 75 1013.1
20260906183459 85 358 2.0 3.0 0.00 0.00 0.00 74 1013.0
20260906182459 85 8 2.0 3.0 0.00 0.00 0.00 73 1013.2
20260906182003 85 331 2.0 5.0 0.00 0.00 0.00 73 1013.2
20260906181515 86 353 3.0 6.0 0.00 0.00 0.00 73 1013.2
20260906181001 86 19 2.0 5.0 0.00 0.00 0.00 73 1013.2
20260906180500 86 21 2.0 4.0 0.00 0.00 0.00 75 1013.2
20260906180023 85 67 1.0 3.0 0.00 0.00 0.00 75 1013.1
20260906175458 84 52 2.0 3.0 0.00 0.00 0.00 76 1013.2
20260906175000 85 54 2.0 5.0 0.00 0.00 0.00 75 1013.2
20260906174514 85 18 2.0 5.0 0.00 0.00 0.00 75 1013.3
20260906173959 86 12 1.0 4.0 0.00 0.00 0.00 75 1013.3
20260906173459 85 171 0.0 2.0 0.00 0.00 0.00 73 1013.3
20260906173017 84 218 0.0 2.0 0.00 0.00 0.00 74 1013.4
20260906171958 83 131 2.0 4.0 0.00 0.00 0.00 76 1013.5
20260906171513 83 227 2.0 4.0 0.00 0.00 0.00 76 1013.5
20260906170958 83 127 2.0 7.0 0.00 0.00 0.00 75 1013.6
20260906170018 83 193 2.0 8.0 0.00 0.00 0.00 76 1013.6
20260906165458 83 285 2.0 8.0 0.00 0.00 0.00 75 1013.6
20260906164959 83 175 3.0 7.0 0.00 0.00 0.00 75 1013.6
20260906163959 84 197 2.0 12.0 0.00 0.00 0.00 72 1013.5
20260906163458 85 159 1.0 7.0 0.00 0.00 0.00 70 1013.5
20260906163024 86 155 0.0 1.0 0.00 0.00 0.00 72 1013.4
20260906162458 86 10 1.0 2.0 0.00 0.00 0.00 71 1013.4
20260906161959 86 77 1.0 2.0 0.00 0.00 0.00 71 1013.5
20260906161513 86 40 0.0 2.0 0.00 0.00 0.00 71 1013.5
20260906160959 86 3 1.0 2.0 0.00 0.00 0.00 73 1013.5
20260906160458 86 89 1.0 3.0 0.00 0.00 0.00 72 1013.4
20260906160024 86 330 1.0 3.0 0.00 0.00 0.00 71 1013.4
20260906155458 86 34 2.0 3.0 0.00 0.00 0.00 71 1013.4
20260906155000 86 343 2.0 3.0 0.00 0.00 0.00 72 1013.4
20260906154514 86 293 1.0 3.0 0.00 0.00 0.00 72 1013.4
20260906154000 86 318 1.0 3.0 0.00 0.00 0.00 72 1013.5
20260906153022 86 341 2.0 4.0 0.00 0.00 0.00 73 1013.4
20260906151513 86 333 1.0 5.0 0.00 0.00 0.00 75 1013.4
20260906150958 86 97 1.0 2.0 0.00 0.00 0.00 73 1013.4
20260906150458 86 57 0.0 2.0 0.00 0.00 0.00 74 1013.4
20260906150028 86 27 0.0 2.0 0.00 0.00 0.00 75 1013.4
20260906145458 85 292 1.0 2.0 0.00 0.00 0.00 77 1013.4
20260906144959 85 85 1.0 2.0 0.00 0.00 0.00 78 1013.4
20260906144514 85 81 1.0 2.0 0.00 0.00 0.00 79 1013.5
20260906143959 85 358 1.0 2.0 0.00 0.00 0.00 79 1013.4
20260906143457 84 96 1.0 2.0 0.00 0.00 0.00 80 1013.4
20260906143024 84 114 1.0 2.0 0.00 0.00 0.00 80 1013.4
20260906142458 84 126 1.0 2.0 0.00 0.00 0.00 81 1013.4
20260906141958 84 344 1.0 4.0 0.00 0.00 0.00 80 1013.4
20260906141512 84 129 1.0 4.0 0.00 0.00 0.00 81 1013.4
20260906140959 83 46 1.0 3.0 0.00 0.00 0.00 81 1013.3
20260906140459 83 187 1.0 3.0 0.00 0.00 0.00 82 1013.4
20260906140023 83 91 1.0 3.0 0.00 0.00 0.00 82 1013.4
20260906135458 82 108 1.0 2.0 0.00 0.00 0.00 83 1013.2
20260906134959 82 110 1.0 2.0 0.00 0.00 0.00 84 1013.2
20260906134512 82 39 1.0 2.0 0.00 0.00 0.00 85 1013.2
20260906133958 81 96 1.0 2.0 0.00 0.00 0.00 85 1013.1
20260906133021 81 100 1.0 3.0 0.00 0.00 0.00 86 1013.1
20260906132457 81 18 0.0 3.0 0.00 0.00 0.00 87 1013.0
20260906131959 81 91 1.0 2.0 0.00 0.00 0.00 87 1012.9
20260906131000 80 83 1.0 2.0 0.00 0.00 0.00 88 1012.9
20260906130458 80 31 1.0 2.0 0.00 0.00 0.00 88 1012.8
20260906130023 79 156 0.0 1.0 0.00 0.00 0.00 88 1012.7
20260906125457 79 156 0.0 1.0 0.00 0.00 0.00 89 1012.7
20260906124959 79 181 0.0 1.0 0.00 0.00 0.00 89 1012.6
20260906124512 79 181 0.0 1.0 0.00 0.00 0.00 89 1012.6
20260906123958 79 181 0.0 0.0 0.00 0.00 0.00 89 1012.5
20260906123021 78 181 0.0 1.0 0.00 0.00 0.00 89 1012.3
20260906122458 78 181 0.0 1.0 0.00 0.00 0.00 89 1012.4
20260906122000 78 181 0.0 1.0 0.00 0.00 0.00 89 1012.3
20260906121512 78 181 0.0 1.0 0.00 0.00 0.00 89 1012.3
20260906120959 78 181 0.0 1.0 0.00 0.00 0.00 89 1012.3
20260906120458 78 181 0.0 1.0 0.00 0.00 0.00 89 1012.2
20260906120023 78 181 0.0 1.0 0.00 0.00 0.00 89 1012.0
20260906114959 78 181 0.0 1.0 0.00 0.00 0.00 89 1011.9
20260906114512 78 181 0.0 1.0 0.00 0.00 0.00 89 1011.8
20260906113457 78 181 0.0 0.0 0.00 0.00 0.00 88 1011.6
20260906113024 78 181 0.0 0.0 0.00 0.00 0.00 88 1011.6
20260906112457 78 181 0.0 0.0 0.00 0.00 0.00 88 1011.6
20260906111959 78 181 0.0 0.0 0.00 0.00 0.00 88 1011.7
20260906111513 78 181 0.0 0.0 0.00 0.00 0.00 88 1011.7
20260906110457 79 181 0.0 0.0 0.00 0.00 0.00 88 1011.7
20260906110025 79 181 0.0 0.0 0.00 0.00 0.00 88 1011.7
20260906105457 79 181 0.0 0.0 0.00 0.00 0.00 88 1011.8
20260906104957 79 181 0.0 0.0 0.00 0.00 0.00 88 1011.6
20260906104512 79 181 0.0 0.0 0.00 0.00 0.00 88 1011.6
20260906103457 79 181 0.0 0.0 0.00 0.00 0.00 88 1011.6
20260906102457 79 181 0.0 0.0 0.00 0.00 0.00 88 1011.5
20260906101957 79 181 0.0 0.0 0.00 0.00 0.00 87 1011.3
20260906100957 79 181 0.0 0.0 0.00 0.00 0.00 87 1011.3
20260906100457 79 181 0.0 1.0 0.00 0.00 0.00 87 1011.3
20260906100027 79 181 0.0 0.0 0.00 0.00 0.00 87 1011.3
20260906095457 79 181 0.0 1.0 0.00 0.00 0.00 87 1011.3
20260906094957 79 181 0.0 1.0 0.00 0.00 0.00 87 1011.3
20260906094511 79 181 0.0 0.0 0.00 0.00 0.00 87 1011.3
20260906093958 79 181 0.0 0.0 0.00 0.00 0.00 86 1011.2
20260906093456 79 181 0.0 0.0 0.00 0.00 0.00 86 1011.2
20260906093021 80 181 0.0 0.0 0.00 0.00 0.00 86 1011.2
20260906092457 80 181 0.0 0.0 0.00 0.00 0.00 86 1011.2
20260906091958 80 181 0.0 0.0 0.00 0.00 0.00 86 1011.1
20260906091511 80 181 0.0 0.0 0.00 0.00 0.00 86 1011.1
20260906090957 80 181 0.0 0.0 0.00 0.00 0.00 86 1011.1
20260906090457 80 181 0.0 1.0 0.00 0.00 0.00 86 1011.1
20260906090022 80 181 0.0 1.0 0.00 0.00 0.00 85 1011.1
20260906084957 80 181 0.0 1.0 0.00 0.00 0.00 85 1011.0
20260906084511 80 181 0.0 1.0 0.00 0.00 0.00 85 1011.0
20260906083958 80 181 0.0 0.0 0.00 0.00 0.00 85 1011.0
20260906083457 80 181 0.0 0.0 0.00 0.00 0.00 85 1011.0
20260906083012 80 181 0.0 0.0 0.00 0.00 0.00 85 1011.1
20260906082456 80 181 0.0 0.0 0.00 0.00 0.00 85 1011.2
20260906081957 80 181 0.0 1.0 0.00 0.00 0.00 85 1011.2
20260906081512 80 181 0.0 1.0 0.00 0.00 0.00 85 1011.2
20260906080958 80 181 0.0 0.0 0.00 0.00 0.00 84 1011.2
20260906080457 80 181 0.0 0.0 0.00 0.00 0.00 84 1011.1
20260906080014 80 181 0.0 0.0 0.00 0.00 0.00 84 1011.2
20260906075456 80 181 0.0 1.0 0.00 0.00 0.00 84 1011.1
20260906074511 81 181 0.0 1.0 0.00 0.00 0.00 84 1011.2
20260906073957 81 181 0.0 1.0 0.00 0.00 0.00 84 1011.3
20260906073456 81 181 0.0 0.0 0.00 0.00 0.00 83 1011.3
20260906071958 81 181 0.0 1.0 0.00 0.00 0.00 83 1011.4
20260906071510 81 181 0.0 1.0 0.00 0.00 0.00 83 1011.5
20260906070956 81 181 0.0 2.0 0.00 0.00 0.00 82 1011.5
20260906070456 81 181 1.0 2.0 0.00 0.00 0.00 82 1011.4
20260906070011 81 200 0.0 3.0 0.00 0.00 0.00 82 1011.5
20260906065456 81 192 1.0 3.0 0.00 0.00 0.00 82 1011.6
20260906064956 81 182 1.0 3.0 0.00 0.00 0.00 82 1011.6
20260906064511 81 208 0.0 3.0 0.00 0.00 0.00 82 1011.6
20260906063955 81 222 0.0 2.0 0.00 0.00 0.00 82 1011.6
20260906063455 81 222 0.0 2.0 0.00 0.00 0.00 81 1011.7
20260906063012 81 150 0.0 2.0 0.00 0.00 0.00 81 1011.7
20260906062456 82 202 0.0 2.0 0.00 0.00 0.00 81 1011.6
20260906061956 82 209 1.0 2.0 0.00 0.00 0.00 81 1011.6
20260906061511 82 182 0.0 3.0 0.00 0.00 0.00 81 1011.5
20260906060957 82 191 0.0 2.0 0.00 0.00 0.00 81 1011.5
20260906060455 82 167 0.0 2.0 0.00 0.00 0.00 80 1011.5
20260906060024 82 171 0.0 3.0 0.00 0.00 0.00 80 1011.6
20260906055501 82 159 1.0 3.0 0.00 0.00 0.00 80 1011.5
20260906055001 82 103 1.0 3.0 0.00 0.00 0.00 80 1011.6
20260906054516 82 171 2.0 3.0 0.00 0.00 0.00 80 1011.7
20260906053500 82 353 2.0 6.0 0.00 0.00 0.00 80 1011.7
20260906053023 82 193 1.0 5.0 0.00 0.00 0.00 80 1011.6
20260906052003 82 214 1.0 3.0 0.00 0.00 0.00 80 1011.7
20260906051515 82 194 1.0 3.0 0.00 0.00 0.00 80 1011.6
20260906051001 82 166 0.0 2.0 0.00 0.00 0.00 80 1011.6
20260906050500 82 177 1.0 3.0 0.00 0.00 0.00 80 1011.7
20260906050027 82 353 1.0 3.0 0.00 0.00 0.00 80 1011.8
20260906045500 82 171 1.0 3.0 0.00 0.00 0.00 80 1011.7
20260906045000 82 135 1.0 3.0 0.00 0.00 0.00 80 1011.6
20260906044515 82 186 0.0 3.0 0.00 0.00 0.00 80 1011.6
20260906044002 81 150 0.0 2.0 0.00 0.00 0.00 81 1011.7
20260906043501 81 100 0.0 1.0 0.00 0.00 0.00 82 1011.7
20260906043023 81 100 0.0 1.0 0.00 0.00 0.00 82 1011.6
20260906042500 81 100 0.0 1.0 0.00 0.00 0.00 83 1011.7
20260906041516 81 100 0.0 0.0 0.00 0.00 0.00 83 1011.7
20260906040501 81 100 0.0 1.0 0.00 0.00 0.00 83 1011.7
20260906040027 81 100 0.0 1.0 0.00 0.00 0.00 83 1011.8
20260906035500 81 100 0.0 1.0 0.00 0.00 0.00 83 1011.8
20260906034517 81 100 0.0 1.0 0.00 0.00 0.00 83 1011.8
20260906033501 81 100 0.0 1.0 0.00 0.00 0.00 83 1011.8
20260906033025 81 100 0.0 1.0 0.00 0.00 0.00 83 1011.8
20260906032501 81 100 0.0 2.0 0.00 0.00 0.00 82 1011.8
20260906032001 81 91 0.0 1.0 0.00 0.00 0.00 82 1011.8
20260906031516 81 91 0.0 1.0 0.00 0.00 0.00 82 1011.8
20260906031001 81 104 0.0 1.0 0.00 0.00 0.00 82 1011.9
20260906030500 81 102 0.0 2.0 0.00 0.00 0.00 82 1011.7
20260906030029 81 102 1.0 2.0 0.00 0.00 0.00 81 1011.7
20260906025500 81 108 0.0 2.0 0.00 0.00 0.00 81 1011.5
20260906025001 81 91 0.0 2.0 0.00 0.00 0.00 81 1011.5
20260906024516 82 66 0.0 2.0 0.00 0.00 0.00 81 1011.5
20260906024001 82 66 1.0 3.0 0.00 0.00 0.00 80 1011.4
20260906023500 82 85 1.0 4.0 0.00 0.00 0.00 80 1011.3
20260906022500 82 87 1.0 4.0 0.00 0.00 0.00 80 1011.2
20260906022001 82 102 2.0 6.0 0.00 0.00 0.00 80 1011.1
20260906021516 82 58 2.0 6.0 0.00 0.00 0.00 80 1011.1
20260906021001 82 54 2.0 6.0 0.00 0.00 0.00 80 1011.0
20260906020500 82 69 2.0 6.0 0.00 0.00 0.00 80 1011.0
20260906020026 82 36 2.0 4.0 0.00 0.00 0.00 80 1010.8
20260906015500 82 89 2.0 3.0 0.00 0.00 0.00 80 1010.6
20260906015001 82 52 1.0 5.0 0.00 0.00 0.00 80 1010.6
20260906014515 82 22 1.0 3.0 0.00 0.00 0.00 80 1010.6
20260906014003 82 87 1.0 3.0 0.00 0.00 0.00 80 1010.6
20260906013027 82 7 1.0 5.0 0.00 0.00 0.00 80 1010.5
20260906012500 82 80 1.0 3.0 0.00 0.00 0.00 80 1010.4
20260906012001 82 97 1.0 3.0 0.00 0.00 0.00 79 1010.5
20260906011000 82 50 2.0 4.0 0.00 0.00 0.00 78 1010.3
20260906010500 82 358 1.0 4.0 0.00 0.00 0.00 78 1010.4
20260906010024 82 12 1.0 4.0 0.00 0.00 0.00 77 1010.4
20260906005459 83 33 2.0 4.0 0.00 0.00 0.00 77 1010.5
20260906005000 83 10 2.0 5.0 0.00 0.00 0.00 77 1010.6
20260906004000 83 8 1.0 2.0 0.00 0.00 0.00 76 1010.6
20260906003459 83 10 1.0 3.0 0.00 0.00 0.00 75 1010.7
20260906003018 83 31 2.0 4.0 0.00 0.00 0.00 74 1010.7
20260906002458 84 69 2.0 5.0 0.00 0.00 0.00 74 1010.7
20260906002000 85 49 3.0 7.0 0.00 0.00 0.00 72 1010.7
20260906001514 85 40 3.0 7.0 0.00 0.00 0.00 71 1010.8
20260906001000 85 44 2.0 5.0 0.00 0.00 0.00 71 1010.8
20260906000459 85 48 2.0 6.0 0.00 0.00 0.00 70 1010.8
20260906000023 86 10 2.0 6.0 0.00 0.00 0.00 70 1010.8
20260905235459 86 19 2.0 4.0 0.00 0.00 0.00 69 1010.9
20260905235000 86 27 1.0 4.0 0.00 0.00 0.00 70 1011.0
20260905234514 86 52 1.0 3.0 0.00 0.00 0.00 70 1011.0
20260905234000 86 52 1.0 3.0 0.00 0.00 0.00 70 1011.0
20260905233459 86 39 1.0 2.0 0.00 0.00 0.00 69 1011.1
20260905233023 86 63 1.0 2.0 0.00 0.00 0.00 69 1011.1
20260905232459 87 19 1.0 2.0 0.00 0.00 0.00 69 1011.1
20260905232003 87 358 0.0 2.0 0.00 0.00 0.00 69 1011.1